Regional Weather Roundup
Issued by NWS

Home | Current Version | Previous Version | Text Only | Print | Product List | Glossary On
Versions: 1 2 3 4 5 6 7 8 9 10 11 12 13 14 15 16 17 18 19 20 21 22 23 24 25 26 27 28 29 30 31 32 33 34 35 36 37 38 39 40 41 42 43 44 45 46 47 48 49 50
000
ASUS42 KFFC 220910
RWRGA
WEATHER ROUNDUP FOR GEORGIA
NATIONAL WEATHER SERVICE PEACHTREE CITY GA
500 AM EDT SUN OCT 22 2017

NOTE: "FAIR" INDICATES FEW OR NO CLOUDS BELOW 12,000 FEET WITH NO
SIGNIFICANT WEATHER AND/OR OBSTRUCTIONS TO VISIBILITY.

* = USE WITH CAUTION. THE STATIONS MARKED WITH AN ASTERISK MAY NOT
REPORT WEATHER SUCH AS PRECIPITATION, FOG, OR THUNDER AND ARE NOT
QUALITY CONTROLLED BY NWS.

THE REMARK "TC" DENOTES TEMPERATURE READING IN DEGREES CELSIUS.

GAZ001>058-221000-
NORTH GEORGIA

CITY           SKY/WX    TMP DP  RH WIND       PRES   REMARKS
ATLANTA        PTCLDY    58  55  90 E8        30.23F
ATHENS         CLEAR     54  53  97 E7        30.26F
CHAMBLEE       PTCLDY    57  52  83 CALM      30.25S
PEACHTREE CITY CLEAR     52  51  97 CALM      30.24S
ROME           PTCLDY    53  52  96 CALM      30.22F
WEST ATLANTA   PTCLDY    54  54 100 NE5       30.24F
GAINESVILLE    PTCLDY    59  52  77 E6        30.29S
CARTERSVILLE   PTCLDY    58  55  90 SE5       30.24F


CITY           SKY/WX    TMP DP  RH WIND       PRES   REMARKS
DALTON*        CLOUDY    52  52 100 CALM      30.25S
LAWRENCEVILLE* CLEAR     57  52  83 NE7         N/A
MARIETTA       PTCLDY    58  52  81 CALM      30.24F
KENNESAW*      PTCLDY    59  53  80 E5        30.25F
CANTON*        PTCLDY    59  54  82 CALM      30.27F
$$

GAZ059>098-102>109-221000-
CENTRAL GEORGIA

CITY           SKY/WX    TMP DP  RH WIND       PRES   REMARKS
AUGUSTA-BUSH   PTCLDY    58  56  93 CALM      30.25F
AUGUSTA-DANIEL PTCLDY    67  61  81 E6        30.26F
COLUMBUS       CLEAR     64  59  83 E8        30.18F
MACON          MOCLDY    55  54  96 CALM      30.22R
ROBINS AFB     CLEAR     56  55  95 CALM      30.21S


CITY           SKY/WX    TMP DP  RH WIND       PRES   REMARKS
LAGRANGE*      CLEAR     55  54  98 CALM      30.21S
SYLVANIA*      CLOUDY    65  65 100 E3        30.24S
$$

GAZ099>101-110>166-221000-
SOUTH GEORGIA

CITY           SKY/WX    TMP DP  RH WIND       PRES   REMARKS
SAVANNAH       CLEAR     68  67  96 NE8       30.21S
VALDOSTA       PTCLDY    68  66  93 E5        30.16S
ALMA           CLOUDY    68  66  93 NE3       30.18F
ST SIMONS      CLOUDY    75  71  87 E7        30.16F
FT STEWART     CLEAR     67  65  93 NE7       30.18F
ALBANY         PTCLDY    66  65  96 NE7       30.18S
HUNTER AFB     CLEAR     69  67  93 NE6       30.18S
MOODY AFB      PTCLDY    67  66  95 E6        30.15F
BRUNSWICK      CLOUDY    64  63  94 N3        30.18S FOG


CITY           SKY/WX    TMP DP  RH WIND       PRES   REMARKS
BAINBRIDGE*    CLEAR     66  66 100 E6        30.15S
MOULTRIE*      PTCLDY    68  64  88 CALM      30.17S
VIDALIA*       CLOUDY    64  64 100 NE3       30.21S
WAYCROSS*      CLOUDY    69  66  90 E5        30.18S
DOUGLAS*       CLOUDY    66  66 100 E7        30.19F
$$




USA.gov is the U.S. government's official web portal to all federal, state and local government web resources and services.